LiveATC.Net - Listen to live air traffic control over the Internet!


ICAO: ENTC  IATA: TOS   Airport: Tromso Airport
City: Langnes
Country: Norway   Continent: Europe
ENTC METAR Weather: ENTC 121650Z 19016KT CAVOK 01/M07 Q0986 NOSIG RMK WIND 2600FT 17022KT
ENTC Flight Activity (FlightAware)

ENTC Tower/App
Feed Status: UP   Listeners: 0
Listen in your browser - HTML5 player (in browser, HTML5)
Click here to listen with your own player (launches your MP3 player)
Archive Access: ENTC Tower/App
FacilityFrequency
Langnes Tower118.300
Langnes VDF (Approach)123.750

NOTICE

Unauthorized use prohibited. See LiveATC.net Terms of Service


Airport/ARTCC Code
Frequency Search
(e.g., 124.400, 128.75)
Site-wide search
 


Browse Feeds
Top 50 Feeds
Coverage Map
Bad Weather Areas

LiveATC FAQ
Offer LiveATC feed
Contact LiveATC.net
Press Inquiries

LiveATC on iPhone
LiveATC on Android

Windows Phone
Windows 8/10

LiveATC Mobile
(Mobile browser)

ATC Audio Archives
Interesting Recordings

LiveATC Forums


Home Page
About LiveATC.net
Make a Donation
Terms of Use
Privacy Policy

Canadian Air Freqs

AIRMETs/SIGMETs

FAA Airport Status
Nat'l Airspace Status
Arrival Demand Charts


Server Software By:
Icecast.org
Liquidsoap